Weather reports worldwide

Advertisment
Alsancak, Cyprus (17572): temperature & dewpoint: 09.08.2018 22:00:00 - 15.08.2018 22:00:00 (EEST)Alsancak, Cyprus (17572): wind speed: 09.08.2018 22:00:00 - 15.08.2018 22:00:00 (EEST)Alsancak, Cyprus (17572): wind direction: 09.08.2018 22:00:00 - 15.08.2018 22:00:00 (EEST)Alsancak, Cyprus (17572): reduced air pressure: 09.08.2018 22:00:00 - 15.08.2018 22:00:00 (EEST)Alsancak, Cyprus (17572): visibility: 09.08.2018 22:00:00 - 15.08.2018 22:00:00 (EEST)
Date & Time tt [°C] td [°C] ff [km/h] ff [kn] dd ppp [hPa] vv [km]
15.08.2018 22:00:00 - - - - - - -
15.08.2018 21:00:00 27,0 20,7 0 0 N 1007,4 10
15.08.2018 20:00:00 28,4 23,3 26 14 W 1006,7 10
15.08.2018 19:00:00 29,4 24,1 22 12 NW 1006,4 10
15.08.2018 18:00:00 29,5 24,1 34 18 WNW 1006,3 10
15.08.2018 17:00:00 29,5 24,5 22 12 WNW 1006,5 10
15.08.2018 16:00:00 29,7 24,2 26 14 WNW 1006,5 10
15.08.2018 15:00:00 29,7 23,4 26 14 WNW 1006,7 10
15.08.2018 14:00:00 30,0 23,7 5 3 SSW 1006,8 10
15.08.2018 13:00:00 29,7 21,8 8 4 NNW 1006,9 10
15.08.2018 12:00:00 29,4 22,0 11 6 NNE 1007,0 10
15.08.2018 11:00:00 28,8 21,6 11 6 ENE 1007,2 10
15.08.2018 10:00:00 28,7 21,5 8 4 N 1007,2 10
15.08.2018 09:00:00 28,7 17,8 8 4 N 1007,2 10
15.08.2018 08:00:00 27,6 9,1 0 0 N 1006,9 10
15.08.2018 07:00:00 25,8 5,1 8 4 S 1006,8 10
15.08.2018 06:00:00 26,5 5,5 8 4 SSW 1005,9 10
15.08.2018 05:00:00 - - - - - - -
15.08.2018 04:00:00 - - - - - - -
15.08.2018 03:00:00 29,4 8,7 8 4 W 1005,7 10
15.08.2018 02:00:00 - - - - - - -
15.08.2018 01:00:00 - - - - - - -
15.08.2018 00:00:00 30,1 11,9 22 12 W 1006,2 10
14.08.2018 23:00:00 28,3 21,8 34 18 W 1006,7 10
14.08.2018 22:00:00 28,0 19,0 15 8 WSW 1006,3 10
14.08.2018 21:00:00 28,9 19,5 18 10 W 1006,5 10
14.08.2018 20:00:00 28,7 21,2 26 14 WNW 1005,8 10
14.08.2018 19:00:00 - 24,0 178 96 NNE 1005,6 1,4
14.08.2018 18:00:00 30,2 24,4 15 8 WNW 1005,9 10
14.08.2018 17:00:00 30,5 23,8 34 18 W 1005,7 10
14.08.2018 16:00:00 30,8 21,7 11 6 WNW 1005,8 10
14.08.2018 15:00:00 30,9 20,9 11 6 NW 1006,0 10
14.08.2018 14:00:00 30,4 19,9 11 6 NNW 1006,4 10
14.08.2018 13:00:00 30,2 20,5 8 4 NNW 1006,7 10
14.08.2018 12:00:00 29,4 22,3 11 6 NW 1007,1 10
14.08.2018 11:00:00 28,8 22,1 15 8 NW 1007,0 10
14.08.2018 10:00:00 28,8 21,7 11 6 WNW 1007,2 10
14.08.2018 09:00:00 28,8 20,0 8 4 WNW 1006,6 10
14.08.2018 08:00:00 28,3 16,3 8 4 W 1006,5 10
14.08.2018 07:00:00 25,7 10,1 11 6 SSW 1006,2 10
14.08.2018 06:00:00 26,7 13,3 8 4 SW 1005,7 10
14.08.2018 05:00:00 - - - - - - -
14.08.2018 04:00:00 - - - - - - -
14.08.2018 03:00:00 29,0 14,6 0 0 N 1005,5 10
14.08.2018 02:00:00 - - - - - - -
14.08.2018 01:00:00 - - - - - - -
14.08.2018 00:00:00 28,7 17,2 16 9 W 1006,2 10
13.08.2018 23:00:00 - - - - - - -
13.08.2018 22:00:00 29,2 16,6 34 18 WNW 1006,0 10
13.08.2018 21:00:00 29,1 15,2 24 13 WNW 1005,9 10
13.08.2018 20:00:00 29,2 22,3 18 10 W 1005,9 10
13.08.2018 19:00:00 29,4 22,9 21 11 W 1005,7 10
13.08.2018 18:00:00 29,4 24,8 42 23 W 1005,5 10
13.08.2018 17:00:00 29,7 24,1 42 23 W 1006,0 10
13.08.2018 16:00:00 31,1 23,7 22 12 WNW 1006,2 10
13.08.2018 15:00:00 30,0 23,4 22 12 WNW 1006,9 10
13.08.2018 14:00:00 30,2 23,9 13 7 WNW 1007,3 10
13.08.2018 13:00:00 29,4 23,6 24 13 WNW 1007,7 10
13.08.2018 12:00:00 29,0 22,8 24 13 W 1007,9 10
13.08.2018 11:00:00 29,0 23,0 22 12 WNW 1008,2 10
13.08.2018 10:00:00 28,9 22,5 26 14 WNW 1008,1 10
13.08.2018 09:00:00 28,9 21,3 22 12 WNW 1008,1 10
13.08.2018 08:00:00 28,4 18,7 18 10 W 1007,8 10
13.08.2018 07:00:00 28,5 16,6 18 10 WNW 1007,5 10
13.08.2018 06:00:00 28,7 13,8 15 8 W 1007,1 10
13.08.2018 05:00:00 - - - - - - -
13.08.2018 04:00:00 - - - - - - -
13.08.2018 03:00:00 27,5 17,3 15 8 WSW 1007,9 10
13.08.2018 02:00:00 - - - - - - -
13.08.2018 01:00:00 - - - - - - -
13.08.2018 00:00:00 28,4 21,6 21 11 WSW 1008,8 10
12.08.2018 23:00:00 28,7 21,6 18 10 W 1008,9 10
12.08.2018 22:00:00 29,1 21,2 21 11 W 1008,8 10
12.08.2018 21:00:00 30,3 18,8 15 8 W 1008,7 10
12.08.2018 20:00:00 32,0 14,2 15 8 NW 1008,2 10
12.08.2018 19:00:00 32,6 17,1 15 8 W 1007,7 10
12.08.2018 18:00:00 31,6 22,0 22 12 WNW 1008,0 10
12.08.2018 17:00:00 30,7 20,6 18 10 W 1008,5 10
12.08.2018 16:00:00 30,8 23,3 13 7 W 1008,8 10
12.08.2018 15:00:00 31,0 22,1 13 7 WNW 1009,2 10
12.08.2018 14:00:00 30,5 22,3 16 9 NW 1009,4 10
12.08.2018 13:00:00 30,2 21,4 9 5 WNW 1009,7 10
12.08.2018 12:00:00 30,1 22,0 0 0 N 1009,7 10
12.08.2018 11:00:00 30,0 21,2 15 8 WNW 1009,6 10
12.08.2018 10:00:00 30,2 20,1 15 8 WNW 1009,2 10
12.08.2018 09:00:00 30,2 17,3 16 9 WSW 1008,9 10
12.08.2018 08:00:00 29,8 16,3 11 6 W 1008,5 10
12.08.2018 07:00:00 28,5 12,2 11 6 WSW 1008,3 10
12.08.2018 06:00:00 28,7 13,4 13 7 W 1008,1 10
12.08.2018 05:00:00 - - - - - - -
12.08.2018 04:00:00 - - - - - - -
12.08.2018 03:00:00 - - - - - - -
12.08.2018 02:00:00 - - - - - - -
12.08.2018 01:00:00 - - - - - - -
12.08.2018 00:00:00 30,1 14,3 9 5 W 1008,9 10
11.08.2018 23:00:00 30,6 12,3 15 8 WNW 1008,9 10
11.08.2018 22:00:00 30,7 10,5 16 9 W 1008,5 10
11.08.2018 21:00:00 30,7 11,9 9 5 WNW 1008,1 10
11.08.2018 20:00:00 - - - - - - -
11.08.2018 19:00:00 32,4 18,1 31 17 WNW 1006,9 10
11.08.2018 18:00:00 31,5 21,1 11 6 W 1007,1 10
11.08.2018 17:00:00 31,8 19,4 29 16 WNW 1007,2 10
11.08.2018 16:00:00 31,1 21,7 11 6 NNW 1007,4 10
11.08.2018 15:00:00 31,2 21,9 9 5 NE 1007,6 10
11.08.2018 14:00:00 31,1 22,6 0 0 N 1007,7 10
11.08.2018 13:00:00 30,3 22,8 18 10 ENE 1008,2 10
11.08.2018 12:00:00 30,6 22,6 0 0 N 1008,3 10
11.08.2018 11:00:00 30,4 22,5 16 9 NE 1008,6 10
11.08.2018 10:00:00 30,1 21,9 15 8 ENE 1008,6 10
11.08.2018 09:00:00 30,5 19,4 0 0 N 1008,5 10
11.08.2018 08:00:00 29,7 13,6 0 0 N 1008,1 10
11.08.2018 07:00:00 27,8 11,3 8 4 SW 1007,9 10
11.08.2018 06:00:00 26,9 10,3 8 4 S 1007,7 10
11.08.2018 05:00:00 - - - - - - -
11.08.2018 04:00:00 - - - - - - -
11.08.2018 03:00:00 30,0 10,8 11 6 WSW 1008,1 10
11.08.2018 02:00:00 - - - - - - -
11.08.2018 01:00:00 - - - - - - -
11.08.2018 00:00:00 30,7 16,6 22 12 W 1009,1 10
10.08.2018 23:00:00 29,9 10,9 5 3 SW 1009,0 10
10.08.2018 22:00:00 30,0 17,5 8 4 WNW 1009,0 10
10.08.2018 21:00:00 29,9 23,7 8 4 W 1008,8 10
10.08.2018 20:00:00 30,5 24,3 29 16 W 1008,6 10
10.08.2018 19:00:00 34,2 15,6 0 0 N 1008,2 10
10.08.2018 18:00:00 33,4 19,5 0 0 N 1008,2 10
10.08.2018 17:00:00 34,2 16,6 8 4 E 1008,6 10
10.08.2018 16:00:00 33,7 14,9 8 4 ESE 1008,6 10
10.08.2018 15:00:00 33,4 15,9 11 6 ENE 1009,1 10
10.08.2018 14:00:00 34,4 15,7 0 0 N 1009,9 10
10.08.2018 13:00:00 34,5 12,8 8 4 E 1010,2 10
10.08.2018 12:00:00 31,2 22,5 0 0 N 1010,5 10
10.08.2018 11:00:00 30,2 22,2 8 4 WNW 1010,6 10
10.08.2018 10:00:00 30,2 21,5 15 8 NW 1010,4 10
10.08.2018 09:00:00 30,8 20,6 15 8 WNW 1010,1 10
10.08.2018 08:00:00 29,7 15,2 8 4 WSW 1009,6 10
10.08.2018 07:00:00 28,4 14,6 0 0 N 1009,5 10
10.08.2018 06:00:00 29,2 14,6 0 0 N 1009,2 10
10.08.2018 05:00:00 - - - - - - -
10.08.2018 04:00:00 - - - - - - -
10.08.2018 03:00:00 31,3 21,3 8 4 NW 1008,1 10
10.08.2018 02:00:00 - - - - - - -
10.08.2018 01:00:00 - - - - - - -
10.08.2018 00:00:00 - - - - - - -
09.08.2018 23:00:00 31,9 10,2 26 14 WNW 1009,3 10
09.08.2018 22:00:00 31,7 10,6 16 9 W 1009,3 10

tt = temperature
td = dewpoint
ff = wind speed
dd = wind direction
ppp = reduced air pressure
vv = visibility

Next stations